• In India
  • List of Countries
  • For 7 days
  • Water Temperature
  • Satellite Maps
  • Weather Map
  • Weather Widgets
  • user-avatar
    Login

    Hourly Weather Bururi

    Today, 16 December, Sunday

    Time Temperature Precipitation Wind Pressure Humidity
    00:00 +16°C° 0.1 mm 1 mps 618 mmHg 85%
    01:00 +16°C° 0.1 mm 1 mps 618 mmHg 84%
    02:00 +16°C° 0 mm 1 mps 618 mmHg 83%
    03:00 +16°C° 0.1 mm 1 mps 618 mmHg 83%
    04:00 +15°C° 0.1 mm 2 mps 618 mmHg 82%
    05:00 +15°C° 0.1 mm 2 mps 617 mmHg 82%
    06:00 +18°C° 0 mm 1 mps 618 mmHg 76%
    07:00 +20°C° 0 mm 1 mps 619 mmHg 71%
    08:00 +22°C° 0 mm 1 mps 620 mmHg 63%
    09:00 +24°C° 0.1 mm 1 mps 620 mmHg 59%
    10:00 +25°C° 0.1 mm 1 mps 620 mmHg 54%
    11:00 +26°C° 0.1 mm 1 mps 620 mmHg 50%
    12:00 +27°C° 0.3 mm 1 mps 620 mmHg 50%
    13:00 +27°C° 0.3 mm 2 mps 619 mmHg 50%
    14:00 +27°C° 0.3 mm 2 mps 618 mmHg 50%
    15:00 +26°C° 0.5 mm 2 mps 618 mmHg 56%
    16:00 +24°C° 0.5 mm 2 mps 618 mmHg 62%
    17:00 +23°C° 0.5 mm 2 mps 617 mmHg 68%
    18:00 +22°C° 1.3 mm 1 mps 617 mmHg 74%
    19:00 +20°C° 1.3 mm 1 mps 617 mmHg 80%
    20:00 +18°C° 1.3 mm 1 mps 617 mmHg 86%
    21:00 +18°C° 0.6 mm 1 mps 618 mmHg 86%
    22:00 +18°C° 0.6 mm 1 mps 618 mmHg 86%
    23:00 +16°C° 0.6 mm 2 mps 618 mmHg 86%

    Tomorrow, 17 December, Monday

    Time Temperature Precipitation Wind Pressure Humidity
    00:00 +16°C° 0.3 mm 2 mps 618 mmHg 85%
    01:00 +16°C° 0.3 mm 2 mps 618 mmHg 84%
    02:00 +16°C° 0.3 mm 2 mps 617 mmHg 84%
    03:00 +16°C° 0.4 mm 2 mps 617 mmHg 83%
    04:00 +16°C° 0.4 mm 2 mps 617 mmHg 83%
    05:00 +16°C° 0.4 mm 2 mps 617 mmHg 82%
    06:00 +17°C° 0.3 mm 2 mps 618 mmHg 79%
    07:00 +18°C° 0.3 mm 2 mps 618 mmHg 76%
    08:00 +19°C° 0.3 mm 2 mps 619 mmHg 73%
    09:00 +20°C° 0.1 mm 2 mps 619 mmHg 67%
    10:00 +23°C° 0.1 mm 2 mps 619 mmHg 61%
    11:00 +24°C° 0.1 mm 2 mps 619 mmHg 55%
    12:00 +25°C° 0.1 mm 2 mps 619 mmHg 54%
    13:00 +26°C° 0.1 mm 2 mps 618 mmHg 52%
    14:00 +26°C° 0.1 mm 1 mps 618 mmHg 51%
    15:00 +25°C° 0.4 mm 1 mps 618 mmHg 55%
    16:00 +24°C° 0.4 mm 1 mps 617 mmHg 60%
    17:00 +23°C° 0.4 mm 1 mps 617 mmHg 64%
    18:00 +22°C° 0.6 mm 1 mps 617 mmHg 69%
    19:00 +20°C° 0.6 mm 1 mps 617 mmHg 74%
    20:00 +19°C° 0.6 mm 1 mps 617 mmHg 79%
    21:00 +19°C° 0.7 mm 1 mps 617 mmHg 81%
    22:00 +18°C° 0.7 mm 1 mps 618 mmHg 82%
    23:00 +18°C° 0.7 mm 1 mps 618 mmHg 84%

    Day after tomorrow, 18 December, Tuesday

    Time Temperature Precipitation Wind Pressure Humidity
    00:00 +18°C° 0.2 mm 1 mps 617 mmHg 84%
    01:00 +16°C° 0.2 mm 1 mps 617 mmHg 85%
    02:00 +16°C° 0.2 mm 2 mps 617 mmHg 85%
    03:00 +16°C° 0 mm 2 mps 617 mmHg 85%
    04:00 +16°C° 0 mm 2 mps 617 mmHg 84%
    05:00 +16°C° 0 mm 2 mps 617 mmHg 84%
    06:00 +18°C° 0 mm 1 mps 618 mmHg 80%
    07:00 +19°C° 0 mm 1 mps 618 mmHg 76%
    08:00 +20°C° 0 mm 1 mps 619 mmHg 72%
    09:00 +21°C° 0.1 mm 1 mps 619 mmHg 66%
    10:00 +23°C° 0.1 mm 1 mps 619 mmHg 60%
    11:00 +24°C° 0.1 mm 1 mps 620 mmHg 54%
    12:00 +24°C° 0.1 mm 2 mps 619 mmHg 53%
    13:00 +25°C° 0.1 mm 2 mps 618 mmHg 52%
    14:00 +25°C° 0.1 mm 2 mps 618 mmHg 52%
    15:00 +24°C° 0.2 mm 2 mps 617 mmHg 57%
    16:00 +23°C° 0.2 mm 2 mps 617 mmHg 63%
    17:00 +21°C° 0.2 mm 2 mps 616 mmHg 69%
    18:00 +20°C° 0.2 mm 2 mps 616 mmHg 74%
    19:00 +20°C° 0.2 mm 1 mps 617 mmHg 79%
    20:00 +18°C° 0.2 mm 1 mps 617 mmHg 83%
    21:00 +18°C° 0.2 mm 1 mps 617 mmHg 84%
    22:00 +18°C° 0.2 mm 1 mps 617 mmHg 84%
    23:00 +18°C° 0.2 mm 1 mps 618 mmHg 84%

    19 December, Wednesday

    Time Temperature Precipitation Wind Pressure Humidity
    00:00 +16°C° 0 mm 1 mps 617 mmHg 84%
    01:00 +16°C° 0 mm 1 mps 617 mmHg 84%
    02:00 +16°C° 0 mm 2 mps 616 mmHg 83%
    03:00 +16°C° 0 mm 1 mps 616 mmHg 83%
    04:00 +16°C° 0 mm 1 mps 616 mmHg 82%
    05:00 +16°C° 0 mm 1 mps 617 mmHg 81%
    06:00 +18°C° 0 mm 1 mps 617 mmHg 76%
    07:00 +20°C° 0 mm 1 mps 618 mmHg 70%
    08:00 +21°C° 0 mm 1 mps 619 mmHg 65%
    09:00 +23°C° 0.1 mm 1 mps 619 mmHg 60%
    10:00 +24°C° 0.1 mm 1 mps 620 mmHg 55%
    11:00 +26°C° 0.1 mm 1 mps 620 mmHg 50%
    12:00 +26°C° 0.2 mm 1 mps 619 mmHg 50%
    13:00 +26°C° 0.2 mm 1 mps 618 mmHg 50%
    14:00 +26°C° 0.2 mm 1 mps 618 mmHg 49%
    15:00 +25°C° 0.5 mm 2 mps 617 mmHg 55%
    16:00 +24°C° 0.5 mm 2 mps 617 mmHg 61%
    17:00 +23°C° 0.5 mm 2 mps 616 mmHg 67%
    18:00 +21°C° 0.8 mm 1 mps 616 mmHg 73%
    19:00 +20°C° 0.8 mm 1 mps 617 mmHg 80%
    20:00 +18°C° 0.8 mm 1 mps 617 mmHg 86%
    21:00 +18°C° 1.2 mm 1 mps 617 mmHg 87%
    22:00 +18°C° 1.2 mm 1 mps 617 mmHg 88%
    23:00 +18°C° 1.2 mm 1 mps 617 mmHg 89%

    20 December, Thursday

    Time Temperature Precipitation Wind Pressure Humidity
    00:00 +16°C° 1.1 mm 2 mps 617 mmHg 89%
    01:00 +16°C° 1.1 mm 2 mps 617 mmHg 89%
    02:00 +16°C° 1.1 mm 2 mps 616 mmHg 89%
    03:00 +16°C° 0.6 mm 2 mps 616 mmHg 88%
    04:00 +16°C° 0.6 mm 2 mps 616 mmHg 88%
    05:00 +16°C° 0.6 mm 2 mps 616 mmHg 87%
    06:00 +16°C° 0.3 mm 2 mps 617 mmHg 85%
    07:00 +18°C° 0.3 mm 1 mps 617 mmHg 83%
    08:00 +19°C° 0.3 mm 1 mps 618 mmHg 81%
    09:00 +20°C° 0.2 mm 1 mps 618 mmHg 75%
    10:00 +21°C° 0.2 mm 1 mps 618 mmHg 70%
    11:00 +22°C° 0.2 mm 1 mps 618 mmHg 64%
    12:00 +23°C° 0.2 mm 1 mps 618 mmHg 61%
    13:00 +24°C° 0.2 mm 1 mps 617 mmHg 58%
    14:00 +24°C° 0.2 mm 1 mps 617 mmHg 55%
    15:00 +23°C° 0.5 mm 1 mps 616 mmHg 61%
    16:00 +22°C° 0.5 mm 1 mps 616 mmHg 66%
    17:00 +21°C° 0.5 mm 1 mps 616 mmHg 71%
    18:00 +20°C° 0.3 mm 1 mps 616 mmHg 75%
    19:00 +19°C° 0.3 mm 1 mps 616 mmHg 79%
    20:00 +18°C° 0.3 mm 1 mps 617 mmHg 83%
    21:00 +18°C° 0.5 mm 1 mps 617 mmHg 84%
    22:00 +18°C° 0.5 mm 1 mps 617 mmHg 85%
    23:00 +16°C° 0.5 mm 1 mps 617 mmHg 87%

    21 December, Friday

    Time Temperature Precipitation Wind Pressure Humidity
    00:00 +16°C° 0.4 mm 1 mps 617 mmHg 87%
    01:00 +16°C° 0.4 mm 1 mps 616 mmHg 87%
    02:00 +16°C° 0.4 mm 1 mps 616 mmHg 87%
    03:00 +16°C° 0.3 mm 1 mps 616 mmHg 87%
    04:00 +16°C° 0.3 mm 1 mps 616 mmHg 88%
    05:00 +16°C° 0.3 mm 1 mps 616 mmHg 88%
    06:00 +16°C° 0.4 mm 1 mps 617 mmHg 87%
    07:00 +18°C° 0.4 mm 1 mps 617 mmHg 85%
    08:00 +18°C° 0.4 mm 1 mps 618 mmHg 84%
    09:00 +19°C° 0.4 mm 1 mps 618 mmHg 81%
    10:00 +20°C° 0.4 mm 1 mps 618 mmHg 77%
    11:00 +20°C° 0.4 mm 1 mps 618 mmHg 74%
    12:00 +21°C° 0.3 mm 1 mps 617 mmHg 72%
    13:00 +21°C° 0.3 mm 1 mps 617 mmHg 69%
    14:00 +22°C° 0.3 mm 1 mps 616 mmHg 67%
    15:00 +21°C° 0.3 mm 1 mps 616 mmHg 70%
    16:00 +21°C° 0.3 mm 1 mps 616 mmHg 72%
    17:00 +20°C° 0.3 mm 1 mps 615 mmHg 75%
    18:00 +19°C° 0.5 mm 1 mps 616 mmHg 79%
    19:00 +18°C° 0.5 mm 1 mps 616 mmHg 82%
    20:00 +16°C° 0.5 mm 1 mps 616 mmHg 86%
    21:00 +16°C° 0.9 mm 1 mps 616 mmHg 87%
    22:00 +16°C° 0.9 mm 1 mps 616 mmHg 88%
    23:00 +16°C° 0.9 mm 1 mps 617 mmHg 89%
    Show more